Time,TemperatureF,DewpointF,PressureIn,WindDirection,WindDirectionDegrees,WindSpeedMPH,WindSpeedGustMPH,Humidity,HourlyPrecipIn,Conditions,Clouds,dailyrainin,SoftwareType,DateUTC
2013-08-14 00:00:00,66.9,43.7,30.08,WNW,292,0.0,0.0,43,0.00,,SCT,0.00,VWS V14.01,2013-08-14 07:00:00,
2013-08-14 00:05:00,66.7,43.5,30.08,NNW,333,0.0,4.0,43,0.00,,SCT,0.00,VWS V14.01,2013-08-14 07:05:00,
2013-08-14 00:10:00,66.7,43.5,30.11,North,353,0.0,5.4,43,0.00,,SCT,0.00,VWS V14.01,2013-08-14 07:10:00,
2013-08-14 00:15:00,66.6,43.4,30.11,North,8,0.0,0.0,43,0.00,,SCT,0.00,VWS V14.01,2013-08-14 07:15:00,
2013-08-14 00:20:00,66.6,43.4,30.11,NNW,330,0.0,0.0,43,0.00,,SCT,0.00,VWS V14.01,2013-08-14 07:20:00,
2013-08-14 00:25:00,66.6,43.4,30.11,NW,326,0.0,0.0,43,0.00,,SCT,0.00,VWS V14.01,2013-08-14 07:25:00,
2013-08-14 00:30:00,66.7,43.5,30.11,NNW,331,0.0,0.0,43,0.00,,SCT,0.00,VWS V14.01,2013-08-14 07:30:00,
2013-08-14 00:35:00,66.7,43.5,30.11,NNW,331,0.0,4.0,43,0.00,,SCT,0.00,VWS V14.01,2013-08-14 07:35:00,
2013-08-14 00:40:00,66.7,42.9,30.11,WNW,294,0.0,5.4,42,0.00,,SCT,0.00,VWS V14.01,2013-08-14 07:40:00,
2013-08-14 00:45:00,66.7,42.9,30.11,NW,323,0.0,5.4,42,0.00,,SCT,0.00,VWS V14.01,2013-08-14 07:45:00,
2013-08-14 00:51:00,66.7,42.9,30.11,NNW,335,0.0,5.4,42,0.00,,SCT,0.00,VWS V14.01,2013-08-14 07:51:00,
2013-08-14 00:56:00,66.6,42.8,30.11,NW,324,0.0,5.4,42,0.00,,SCT,0.00,VWS V14.01,2013-08-14 07:56:00,
2013-08-14 01:01:00,66.6,42.8,30.11,NNW,345,0.0,5.4,42,0.00,,SCT,0.00,VWS V14.01,2013-08-14 08:01:00,
2013-08-14 01:06:00,66.6,42.8,30.11,NW,326,0.0,5.4,42,0.00,,SCT,0.00,VWS V14.01,2013-08-14 08:06:00,
2013-08-14 01:11:00,66.6,42.8,30.11,NW,326,0.0,5.4,42,0.00,,SCT,0.00,VWS V14.01,2013-08-14 08:11:00,
2013-08-14 01:16:00,66.6,42.8,30.11,NW,307,0.0,0.0,42,0.00,,SCT,0.00,VWS V14.01,2013-08-14 08:16:00,
2013-08-14 01:21:00,66.4,42.6,30.11,NW,307,0.0,0.0,42,0.00,,SCT,0.00,VWS V14.01,2013-08-14 08:21:00,
2013-08-14 01:26:00,66.2,42.5,30.11,NW,307,0.0,0.0,42,0.00,,SCT,0.00,VWS V14.01,2013-08-14 08:26:00,
2013-08-14 01:31:00,66.2,42.5,30.11,NW,310,0.0,0.0,42,0.00,,SCT,0.00,VWS V14.01,2013-08-14 08:31:00,
2013-08-14 01:37:00,66.2,42.5,30.11,NW,310,0.0,0.0,42,0.00,,SCT,0.00,VWS V14.01,2013-08-14 08:37:00,
2013-08-14 01:42:00,65.8,42.1,30.11,NW,310,0.0,0.0,42,0.00,,SCT,0.00,VWS V14.01,2013-08-14 08:42:00,
2013-08-14 01:47:00,65.7,42.0,30.11,NW,310,0.0,0.0,42,0.00,,SCT,0.00,VWS V14.01,2013-08-14 08:47:00,
2013-08-14 01:52:00,65.5,42.4,30.11,NW,310,0.0,0.0,43,0.00,,SCT,0.00,VWS V14.01,2013-08-14 08:52:00,
2013-08-14 01:57:00,65.5,41.8,30.11,NW,310,0.0,0.0,42,0.00,,SCT,0.00,VWS V14.01,2013-08-14 08:57:00,
2013-08-14 02:02:00,65.1,41.5,30.11,NW,310,0.0,0.0,42,0.00,,SCT,0.00,VWS V14.01,2013-08-14 09:02:00,
2013-08-14 02:07:00,64.8,40.5,30.11,NW,310,0.0,0.0,41,0.00,,SCT,0.00,VWS V14.01,2013-08-14 09:07:00,
2013-08-14 02:13:00,64.4,40.8,30.11,NW,310,0.0,0.0,42,0.00,,SCT,0.00,VWS V14.01,2013-08-14 09:13:00,
2013-08-14 02:18:00,64.2,40.7,30.11,NW,310,0.0,0.0,42,0.00,,SCT,0.00,VWS V14.01,2013-08-14 09:18:00,
2013-08-14 02:23:00,64.0,40.5,30.11,NW,310,0.0,0.0,42,0.00,,SCT,0.00,VWS V14.01,2013-08-14 09:23:00,
2013-08-14 02:28:00,64.0,40.5,30.11,NW,310,0.0,0.0,42,0.00,,SCT,0.00,VWS V14.01,2013-08-14 09:28:00,
2013-08-14 02:33:00,63.9,39.7,30.11,NW,310,0.0,0.0,41,0.00,,SCT,0.00,VWS V14.01,2013-08-14 09:33:00,
2013-08-14 02:39:00,63.9,39.7,30.11,NW,309,0.0,0.0,41,0.00,,SCT,0.00,VWS V14.01,2013-08-14 09:39:00,
2013-08-14 02:44:00,63.7,38.9,30.11,NW,309,0.0,0.0,40,0.00,,SCT,0.00,VWS V14.01,2013-08-14 09:44:00,
2013-08-14 02:49:00,63.5,38.8,30.11,NW,309,0.0,0.0,40,0.00,,SCT,0.00,VWS V14.01,2013-08-14 09:49:00,
2013-08-14 02:54:00,63.5,38.8,30.08,NW,309,0.0,0.0,40,0.00,,SCT,0.00,VWS V14.01,2013-08-14 09:54:00,
2013-08-14 02:59:00,63.5,38.8,30.08,NW,309,0.0,0.0,40,0.00,,SCT,0.00,VWS V14.01,2013-08-14 09:59:00,
2013-08-14 03:04:00,63.3,38.6,30.08,NW,309,0.0,0.0,40,0.00,,SCT,0.00,VWS V14.01,2013-08-14 10:04:00,
2013-08-14 03:09:00,63.3,38.0,30.08,NW,309,0.0,0.0,39,0.00,,SCT,0.00,VWS V14.01,2013-08-14 10:09:00,
2013-08-14 03:14:00,63.1,37.8,30.08,NW,309,0.0,0.0,39,0.00,,SCT,0.00,VWS V14.01,2013-08-14 10:14:00,
2013-08-14 03:19:00,63.1,37.8,30.08,NW,309,0.0,0.0,39,0.00,,SCT,0.00,VWS V14.01,2013-08-14 10:19:00,
2013-08-14 03:24:00,63.1,37.8,30.08,NW,309,0.0,0.0,39,0.00,,SCT,0.00,VWS V14.01,2013-08-14 10:24:00,
2013-08-14 03:30:00,63.0,37.6,30.08,NW,309,0.0,0.0,39,0.00,,SCT,0.00,VWS V14.01,2013-08-14 10:30:00,
2013-08-14 03:35:00,63.0,37.6,30.08,NW,309,0.0,0.0,39,0.00,,SCT,0.00,VWS V14.01,2013-08-14 10:35:00,
2013-08-14 03:43:00,62.8,36.8,30.08,NW,309,0.0,0.0,38,0.00,,SCT,0.00,VWS V14.01,2013-08-14 10:43:00,
2013-08-14 03:45:00,62.6,37.3,30.08,NW,309,0.0,0.0,39,0.00,,SCT,0.00,VWS V14.01,2013-08-14 10:45:00,
2013-08-14 03:48:00,62.6,37.3,30.08,NW,309,0.0,0.0,39,0.00,,SCT,0.00,VWS V14.01,2013-08-14 10:48:00,
2013-08-14 03:54:00,62.6,36.7,30.08,NW,306,0.0,0.0,38,0.00,,SCT,0.00,VWS V14.01,2013-08-14 10:54:00,
2013-08-14 03:59:00,62.6,36.7,30.08,NW,306,0.0,0.0,38,0.00,,SCT,0.00,VWS V14.01,2013-08-14 10:59:00,
2013-08-14 04:00:00,62.6,36.7,30.08,NW,306,0.0,0.0,38,0.00,,SCT,0.00,VWS V14.01,2013-08-14 11:00:00,
2013-08-14 04:04:00,62.4,37.2,30.08,NW,306,0.0,0.0,39,0.00,,SCT,0.00,VWS V14.01,2013-08-14 11:04:00,
2013-08-14 04:09:00,62.2,37.0,30.08,NW,306,0.0,0.0,39,0.00,,SCT,0.00,VWS V14.01,2013-08-14 11:09:00,
2013-08-14 04:14:00,62.2,37.0,30.08,NW,306,0.0,0.0,39,0.00,,SCT,0.00,VWS V14.01,2013-08-14 11:14:00,
2013-08-14 04:15:00,62.2,37.0,30.08,NW,306,0.0,0.0,39,0.00,,SCT,0.00,VWS V14.01,2013-08-14 11:15:00,
2013-08-14 04:19:00,62.2,36.3,30.08,WNW,296,0.0,0.0,38,0.00,,SCT,0.00,VWS V14.01,2013-08-14 11:19:00,
2013-08-14 04:24:00,62.1,36.2,30.08,WNW,296,0.0,0.0,38,0.00,,SCT,0.00,VWS V14.01,2013-08-14 11:24:00,
2013-08-14 04:29:00,61.9,36.0,30.08,South,181,0.0,0.0,38,0.00,,SCT,0.00,VWS V14.01,2013-08-14 11:29:00,
2013-08-14 04:30:00,61.9,36.0,30.08,South,181,0.0,0.0,38,0.00,,SCT,0.00,VWS V14.01,2013-08-14 11:30:00,
2013-08-14 04:34:00,61.9,36.0,30.08,SW,230,0.0,0.0,38,0.00,,SCT,0.00,VWS V14.01,2013-08-14 11:34:00,
2013-08-14 04:39:00,61.7,35.9,30.08,SW,230,0.0,0.0,38,0.00,,SCT,0.00,VWS V14.01,2013-08-14 11:39:00,
2013-08-14 04:44:00,61.5,36.3,30.08,SW,230,0.0,0.0,39,0.00,,SCT,0.00,VWS V14.01,2013-08-14 11:44:00,
2013-08-14 04:45:00,61.5,35.7,30.08,SW,230,0.0,0.0,38,0.00,,SCT,0.00,VWS V14.01,2013-08-14 11:45:00,
2013-08-14 04:49:00,61.3,36.2,30.08,SW,230,0.0,0.0,39,0.00,,SCT,0.00,VWS V14.01,2013-08-14 11:49:00,
2013-08-14 04:54:00,61.3,36.2,30.08,South,175,0.0,0.0,39,0.00,,SCT,0.00,VWS V14.01,2013-08-14 11:54:00,
2013-08-14 04:59:00,61.2,36.0,30.08,South,175,0.0,0.0,39,0.00,,SCT,0.00,VWS V14.01,2013-08-14 11:59:00,
2013-08-14 05:00:00,61.2,36.0,30.08,South,175,0.0,0.0,39,0.00,,SCT,0.00,VWS V14.01,2013-08-14 12:00:00,
2013-08-14 05:04:00,61.0,35.9,30.08,South,175,0.0,0.0,39,0.00,,SCT,0.00,VWS V14.01,2013-08-14 12:04:00,
2013-08-14 05:09:00,61.0,35.9,30.08,South,175,0.0,0.0,39,0.00,,SCT,0.00,VWS V14.01,2013-08-14 12:09:00,
2013-08-14 05:14:00,60.8,35.7,30.08,South,175,0.0,0.0,39,0.00,,SCT,0.00,VWS V14.01,2013-08-14 12:14:00,
2013-08-14 05:15:00,60.8,35.7,30.08,South,175,0.0,0.0,39,0.00,,SCT,0.00,VWS V14.01,2013-08-14 12:15:00,
2013-08-14 05:19:00,60.6,36.2,30.08,South,175,0.0,0.0,40,0.00,,SCT,0.00,VWS V14.01,2013-08-14 12:19:00,
2013-08-14 05:24:00,60.4,36.0,30.08,South,175,0.0,0.0,40,0.00,,SCT,0.00,VWS V14.01,2013-08-14 12:24:00,
2013-08-14 05:30:00,60.3,35.9,30.08,South,175,0.0,0.0,40,0.00,,SCT,0.00,VWS V14.01,2013-08-14 12:30:00,
2013-08-14 05:35:00,60.1,36.3,30.08,South,175,0.0,0.0,41,0.00,,SCT,0.00,VWS V14.01,2013-08-14 12:35:00,
2013-08-14 05:40:00,60.1,36.3,30.08,South,173,0.0,0.0,41,0.00,,SCT,0.00,VWS V14.01,2013-08-14 12:40:00,
2013-08-14 05:45:00,59.9,36.2,30.08,South,173,0.0,0.0,41,0.00,,SCT,0.00,VWS V14.01,2013-08-14 12:45:00,
2013-08-14 05:50:00,59.7,36.0,30.08,South,173,0.0,0.0,41,0.00,,SCT,0.00,VWS V14.01,2013-08-14 12:50:00,
2013-08-14 05:55:00,59.5,36.5,30.08,South,173,0.0,0.0,42,0.00,,SCT,0.00,VWS V14.01,2013-08-14 12:55:00,
2013-08-14 06:00:00,59.5,36.5,30.08,SSE,162,0.0,0.0,42,0.00,,SCT,0.00,VWS V14.01,2013-08-14 13:00:00,
2013-08-14 06:05:00,59.4,36.9,30.08,SSE,154,0.0,0.0,43,0.00,,SCT,0.00,VWS V14.01,2013-08-14 13:05:00,
2013-08-14 06:10:00,59.2,37.3,30.08,ESE,120,0.0,0.0,44,0.00,,SCT,0.00,VWS V14.01,2013-08-14 13:10:00,
2013-08-14 06:15:00,59.0,37.1,30.08,SW,228,0.0,0.0,44,0.00,,SCT,0.00,VWS V14.01,2013-08-14 13:15:00,
2013-08-14 06:20:00,59.0,37.7,30.08,SE,128,0.0,0.0,45,0.00,,SCT,0.00,VWS V14.01,2013-08-14 13:20:00,
2013-08-14 06:25:00,59.2,39.0,30.08,ESE,122,0.0,0.0,47,0.00,,SCT,0.00,VWS V14.01,2013-08-14 13:25:00,
2013-08-14 06:30:00,58.8,39.2,30.08,ESE,121,0.0,0.0,48,0.00,,SCT,0.00,VWS V14.01,2013-08-14 13:30:00,
2013-08-14 06:35:00,58.5,38.9,30.08,ESE,111,0.0,0.0,48,0.00,,SCT,0.00,VWS V14.01,2013-08-14 13:35:00,
2013-08-14 06:40:00,58.6,39.0,30.08,ESE,107,0.0,0.0,48,0.00,,SCT,0.00,VWS V14.01,2013-08-14 13:40:00,
2013-08-14 06:45:00,58.6,40.1,30.08,East,86,0.0,3.1,50,0.00,,SCT,0.00,VWS V14.01,2013-08-14 13:45:00,
2013-08-14 06:50:00,58.6,41.1,30.08,ESE,121,0.0,4.9,52,0.00,,SCT,0.00,VWS V14.01,2013-08-14 13:50:00,
2013-08-14 06:55:00,58.6,41.6,30.08,SE,145,0.0,4.9,53,0.00,,SCT,0.00,VWS V14.01,2013-08-14 13:55:00,
2013-08-14 07:00:00,58.5,42.8,30.08,West,271,3.1,5.8,56,0.00,,SCT,0.00,VWS V14.01,2013-08-14 14:00:00,
2013-08-14 07:06:00,58.1,43.4,30.08,South,188,0.0,5.8,58,0.00,,SCT,0.00,VWS V14.01,2013-08-14 14:06:00,
2013-08-14 07:11:00,58.1,43.9,30.08,West,265,0.0,5.8,59,0.00,,SCT,0.00,VWS V14.01,2013-08-14 14:11:00,
2013-08-14 07:16:00,58.1,43.4,30.08,SE,131,0.0,0.0,58,0.00,,SCT,0.00,VWS V14.01,2013-08-14 14:16:00,
2013-08-14 07:21:00,58.3,42.2,30.08,SSE,162,0.0,0.0,55,0.00,,SCT,0.00,VWS V14.01,2013-08-14 14:21:00,
2013-08-14 07:26:00,58.5,43.3,30.08,East,101,0.0,0.0,57,0.00,,SCT,0.00,VWS V14.01,2013-08-14 14:26:00,
2013-08-14 07:30:00,58.6,44.4,30.08,East,100,0.0,0.0,59,0.00,,SCT,0.00,VWS V14.01,2013-08-14 14:30:00,
2013-08-14 07:31:00,58.6,44.4,30.08,SE,124,0.0,0.0,59,0.00,,SCT,0.00,VWS V14.01,2013-08-14 14:31:00,
2013-08-14 07:36:00,58.5,44.6,30.08,SE,127,0.0,0.0,60,0.00,,SCT,0.00,VWS V14.01,2013-08-14 14:36:00,
2013-08-14 07:41:00,58.5,45.1,30.08,ENE,73,0.0,0.0,61,0.00,,SCT,0.00,VWS V14.01,2013-08-14 14:41:00,
2013-08-14 07:45:00,58.5,45.5,30.08,South,188,0.0,0.0,62,0.00,,SCT,0.00,VWS V14.01,2013-08-14 14:45:00,
2013-08-14 07:46:00,58.5,45.5,30.08,SE,137,0.0,0.0,62,0.00,,SCT,0.00,VWS V14.01,2013-08-14 14:46:00,
2013-08-14 07:51:00,58.5,45.9,30.08,SSE,151,0.0,4.0,63,0.00,,SCT,0.00,VWS V14.01,2013-08-14 14:51:00,
2013-08-14 07:56:00,58.5,46.3,30.08,SSE,166,0.0,4.0,64,0.00,,SCT,0.00,VWS V14.01,2013-08-14 14:56:00,
2013-08-14 08:00:00,58.6,46.5,30.08,South,175,0.0,4.0,64,0.00,,SCT,0.00,VWS V14.01,2013-08-14 15:00:00,
2013-08-14 08:01:00,58.6,46.5,30.08,SE,146,0.0,0.0,64,0.00,,SCT,0.00,VWS V14.01,2013-08-14 15:01:00,
2013-08-14 08:06:00,59.0,46.4,30.08,SE,142,0.0,0.0,63,0.00,,SCT,0.00,VWS V14.01,2013-08-14 15:06:00,
2013-08-14 08:11:00,59.4,46.3,30.08,SSE,151,0.0,0.0,62,0.00,,SCT,0.00,VWS V14.01,2013-08-14 15:11:00,
2013-08-14 08:15:00,59.5,47.4,30.08,SE,128,0.0,0.0,64,0.00,,SCT,0.00,VWS V14.01,2013-08-14 15:15:00,
2013-08-14 08:17:00,59.7,47.1,30.08,ESE,117,0.0,0.0,63,0.00,,SCT,0.00,VWS V14.01,2013-08-14 15:17:00,
2013-08-14 08:22:00,60.1,47.5,30.08,ESE,121,0.0,0.0,63,0.00,,SCT,0.00,VWS V14.01,2013-08-14 15:22:00,
2013-08-14 08:27:00,60.6,47.1,30.08,SE,130,0.0,0.0,61,0.00,,SCT,0.00,VWS V14.01,2013-08-14 15:27:00,
2013-08-14 08:30:00,60.6,46.2,30.08,SE,129,0.0,0.0,59,0.00,,SCT,0.00,VWS V14.01,2013-08-14 15:30:00,
2013-08-14 08:32:00,61.0,46.1,30.08,SSW,207,0.0,0.0,58,0.00,,SCT,0.00,VWS V14.01,2013-08-14 15:32:00,
2013-08-14 08:37:00,61.3,46.0,30.08,ESE,123,4.0,5.4,57,0.00,,SCT,0.00,VWS V14.01,2013-08-14 15:37:00,
2013-08-14 08:42:00,61.9,45.5,30.08,SE,143,2.7,5.4,55,0.00,,SCT,0.00,VWS V14.01,2013-08-14 15:42:00,
2013-08-14 08:47:00,62.2,45.9,30.08,SE,134,0.0,0.0,55,0.00,,SCT,0.00,VWS V14.01,2013-08-14 15:47:00,
2013-08-14 08:54:00,62.8,44.9,30.08,SE,137,0.0,0.0,52,0.00,,SCT,0.00,VWS V14.01,2013-08-14 15:54:00,
2013-08-14 08:59:00,63.1,45.8,30.08,SSE,163,0.0,0.0,53,0.00,,SCT,0.00,VWS V14.01,2013-08-14 15:59:00,
2013-08-14 09:00:00,63.1,45.8,30.08,South,181,0.0,0.0,53,0.00,,SCT,0.00,VWS V14.01,2013-08-14 16:00:00,
2013-08-14 09:04:00,63.7,45.8,30.08,SE,144,0.0,0.0,52,0.00,,SCT,0.00,VWS V14.01,2013-08-14 16:04:00,
2013-08-14 09:09:00,64.2,45.7,30.08,SE,142,0.0,0.0,51,0.00,,SCT,0.00,VWS V14.01,2013-08-14 16:09:00,
2013-08-14 09:14:00,64.2,45.2,30.08,SE,141,0.0,0.0,50,0.00,,SCT,0.00,VWS V14.01,2013-08-14 16:14:00,
2013-08-14 09:15:00,64.2,45.2,30.08,SE,141,0.0,0.0,50,0.00,,SCT,0.00,VWS V14.01,2013-08-14 16:15:00,
2013-08-14 09:19:00,64.4,44.8,30.08,SE,141,0.0,0.0,49,0.00,,SCT,0.00,VWS V14.01,2013-08-14 16:19:00,
2013-08-14 09:24:00,64.6,43.9,30.08,SE,140,0.0,0.0,47,0.00,,SCT,0.00,VWS V14.01,2013-08-14 16:24:00,
2013-08-14 09:29:00,64.4,44.3,30.08,ESE,111,0.0,0.0,48,0.00,,SCT,0.00,VWS V14.01,2013-08-14 16:29:00,
2013-08-14 09:30:00,64.4,44.3,30.08,SE,136,0.0,0.0,48,0.00,,SCT,0.00,VWS V14.01,2013-08-14 16:30:00,
2013-08-14 09:34:00,64.4,44.3,30.08,SE,137,4.9,5.8,48,0.00,,SCT,0.00,VWS V14.01,2013-08-14 16:34:00,
2013-08-14 09:40:00,64.4,44.8,30.08,SSE,165,0.0,5.8,49,0.00,,SCT,0.00,VWS V14.01,2013-08-14 16:40:00,
2013-08-14 09:45:00,64.9,45.3,30.08,SW,221,0.0,0.0,49,0.00,,SCT,0.00,VWS V14.01,2013-08-14 16:45:00,
2013-08-14 09:50:00,65.3,45.1,30.08,ESE,106,2.7,5.4,48,0.00,,SCT,0.00,VWS V14.01,2013-08-14 16:50:00,
2013-08-14 09:55:00,65.7,45.5,30.08,SSE,151,3.6,5.8,48,0.00,,SCT,0.00,VWS V14.01,2013-08-14 16:55:00,
2013-08-14 10:00:00,66.2,45.4,30.08,SE,141,4.5,4.9,47,0.00,,SCT,0.00,VWS V14.01,2013-08-14 17:00:00,
2013-08-14 10:05:00,66.9,45.5,30.08,SE,130,4.9,5.4,46,0.00,,SCT,0.00,VWS V14.01,2013-08-14 17:05:00,
2013-08-14 10:10:00,67.5,45.4,30.08,ESE,123,3.1,5.4,45,0.00,,SCT,0.00,VWS V14.01,2013-08-14 17:10:00,
2013-08-14 10:15:00,68.2,44.2,30.08,SE,133,0.0,4.9,42,0.00,,SCT,0.00,VWS V14.01,2013-08-14 17:15:00,
2013-08-14 10:20:00,68.7,45.3,30.08,South,178,4.0,6.3,43,0.00,,SCT,0.00,VWS V14.01,2013-08-14 17:20:00,
2013-08-14 10:25:00,69.4,44.1,30.08,SE,137,4.9,6.3,40,0.00,,SCT,0.00,VWS V14.01,2013-08-14 17:25:00,
2013-08-14 10:30:00,70.0,44.6,30.08,East,82,0.0,0.0,40,0.00,,SCT,0.00,VWS V14.01,2013-08-14 17:30:00,
2013-08-14 10:35:00,70.7,41.0,30.08,SSE,153,3.1,4.9,34,0.00,,SCT,0.00,VWS V14.01,2013-08-14 17:35:00,
2013-08-14 10:40:00,71.2,40.7,30.08,SE,140,0.0,4.9,33,0.00,,SCT,0.00,VWS V14.01,2013-08-14 17:40:00,
2013-08-14 10:45:00,71.6,40.2,30.08,SW,214,0.0,0.0,32,0.00,,SCT,0.00,VWS V14.01,2013-08-14 17:45:00,
2013-08-14 10:51:00,72.1,40.7,30.08,SE,140,0.0,4.9,32,0.00,,SCT,0.00,VWS V14.01,2013-08-14 17:51:00,
2013-08-14 10:56:00,72.5,41.0,30.08,WSW,245,0.0,5.8,32,0.00,,SCT,0.00,VWS V14.01,2013-08-14 17:56:00,
2013-08-14 11:01:00,73.2,41.6,30.08,SE,146,5.4,5.4,32,0.00,,SCT,0.00,VWS V14.01,2013-08-14 18:01:00,
2013-08-14 11:06:00,73.4,41.0,30.08,SSE,157,0.0,5.8,31,0.00,,SCT,0.00,VWS V14.01,2013-08-14 18:06:00,
2013-08-14 11:11:00,73.4,41.0,30.08,South,183,0.0,6.7,31,0.00,,SCT,0.00,VWS V14.01,2013-08-14 18:11:00,
2013-08-14 11:15:00,73.8,41.3,30.08,SE,141,3.6,6.7,31,0.00,,SCT,0.00,VWS V14.01,2013-08-14 18:15:00,
2013-08-14 11:16:00,73.9,41.4,30.08,West,268,4.0,4.9,31,0.00,,SCT,0.00,VWS V14.01,2013-08-14 18:16:00,
2013-08-14 11:22:00,74.8,42.2,30.08,East,91,0.0,4.9,31,0.00,,SCT,0.00,VWS V14.01,2013-08-14 18:22:00,
2013-08-14 11:27:00,75.6,42.0,30.08,SE,145,0.0,6.3,30,0.00,,SCT,0.00,VWS V14.01,2013-08-14 18:27:00,
2013-08-14 11:30:00,75.7,43.0,30.08,SE,145,0.0,6.3,31,0.00,,SCT,0.00,VWS V14.01,2013-08-14 18:30:00,
2013-08-14 11:33:00,76.5,42.8,30.08,SE,144,0.0,0.0,30,0.00,,SCT,0.00,VWS V14.01,2013-08-14 18:33:00,
2013-08-14 11:38:00,77.2,42.5,30.08,SE,129,2.7,5.4,29,0.00,,SCT,0.00,VWS V14.01,2013-08-14 18:38:00,
2013-08-14 11:43:00,77.4,43.5,30.08,WSW,248,4.5,6.3,30,0.00,,SCT,0.00,VWS V14.01,2013-08-14 18:43:00,
2013-08-14 11:48:00,78.1,42.4,30.08,SE,140,4.5,8.1,28,0.00,,SCT,0.00,VWS V14.01,2013-08-14 18:48:00,
2013-08-14 11:53:00,78.4,42.7,30.08,WSW,239,3.1,10.1,28,0.00,,SCT,0.00,VWS V14.01,2013-08-14 18:53:00,
2013-08-14 11:58:00,79.0,41.2,30.08,West,280,5.4,11.0,26,0.00,,SCT,0.00,VWS V14.01,2013-08-14 18:58:00,
2013-08-14 12:00:00,79.0,42.2,30.08,SE,134,6.3,11.0,27,0.00,,SCT,0.00,VWS V14.01,2013-08-14 19:00:00,
2013-08-14 12:03:00,79.3,41.5,30.08,WSW,258,2.7,10.5,26,0.00,,SCT,0.00,VWS V14.01,2013-08-14 19:03:00,
2013-08-14 12:08:00,80.1,41.1,30.08,SE,137,12.8,12.8,25,0.00,,SCT,0.00,VWS V14.01,2013-08-14 19:08:00,
2013-08-14 12:13:00,80.6,40.5,30.08,SSE,163,5.4,12.8,24,0.00,,SCT,0.00,VWS V14.01,2013-08-14 19:13:00,
2013-08-14 12:19:00,81.0,39.7,30.08,SSW,193,10.1,17.4,23,0.00,,SCT,0.00,VWS V14.01,2013-08-14 19:19:00,
2013-08-14 12:24:00,80.8,40.7,30.05,South,177,4.9,17.4,24,0.00,,SCT,0.00,VWS V14.01,2013-08-14 19:24:00,
2013-08-14 12:29:00,81.3,40.0,30.05,ENE,70,10.5,10.5,23,0.00,,SCT,0.00,VWS V14.01,2013-08-14 19:29:00,
2013-08-14 12:34:00,81.1,39.9,30.05,SE,133,4.0,13.2,23,0.00,,SCT,0.00,VWS V14.01,2013-08-14 19:34:00,
2013-08-14 12:39:00,81.0,38.6,30.05,ESE,116,8.1,13.2,22,0.00,,SCT,0.00,VWS V14.01,2013-08-14 19:39:00,
2013-08-14 12:45:00,81.1,39.9,30.05,ESE,121,0.0,3.6,23,0.00,,SCT,0.00,VWS V14.01,2013-08-14 19:45:00,
2013-08-14 12:50:00,81.7,39.2,30.05,ESE,107,5.8,11.0,22,0.00,,SCT,0.00,VWS V14.01,2013-08-14 19:50:00,
2013-08-14 12:55:00,81.5,40.2,30.05,SE,141,5.4,11.0,23,0.00,,SCT,0.00,VWS V14.01,2013-08-14 19:55:00,
2013-08-14 13:00:00,82.6,39.9,30.05,SW,223,2.7,6.3,22,0.00,,SCT,0.00,VWS V14.01,2013-08-14 20:00:00,
2013-08-14 13:06:00,83.3,40.5,30.05,SE,138,6.3,8.3,22,0.00,,SCT,0.00,VWS V14.01,2013-08-14 20:06:00,
2013-08-14 13:11:00,83.1,40.4,30.05,SE,136,6.3,13.2,22,0.00,,SCT,0.00,VWS V14.01,2013-08-14 20:11:00,
2013-08-14 13:15:00,83.7,39.6,30.05,SE,145,7.6,13.2,21,0.00,,SCT,0.00,VWS V14.01,2013-08-14 20:15:00,
2013-08-14 13:16:00,83.8,39.8,30.05,SSW,197,4.0,7.6,21,0.00,,SCT,0.00,VWS V14.01,2013-08-14 20:16:00,
2013-08-14 13:21:00,83.7,39.6,30.05,ESE,113,10.1,14.1,21,0.00,,SCT,0.00,VWS V14.01,2013-08-14 20:21:00,
2013-08-14 13:27:00,83.5,39.5,30.05,SSW,207,2.7,14.1,21,0.00,,SCT,0.00,VWS V14.01,2013-08-14 20:27:00,
2013-08-14 13:32:00,83.8,39.8,30.05,SE,134,10.1,10.5,21,0.00,,SCT,0.00,VWS V14.01,2013-08-14 20:32:00,
2013-08-14 13:37:00,84.4,40.2,30.05,ESE,104,2.7,10.5,21,0.00,,SCT,0.00,VWS V14.01,2013-08-14 20:37:00,
2013-08-14 13:42:00,84.4,39.0,30.05,SSE,155,8.3,10.5,20,0.00,,SCT,0.00,VWS V14.01,2013-08-14 20:42:00,
2013-08-14 13:47:00,84.7,39.3,30.05,SE,140,5.4,6.3,20,0.00,,SCT,0.00,VWS V14.01,2013-08-14 20:47:00,
2013-08-14 13:52:00,84.9,39.4,30.05,SW,225,3.6,10.5,20,0.00,,SCT,0.00,VWS V14.01,2013-08-14 20:52:00,
2013-08-14 13:57:00,84.9,39.4,30.05,SE,131,8.3,11.0,20,0.00,,SCT,0.00,VWS V14.01,2013-08-14 20:57:00,
2013-08-14 14:00:00,85.1,39.6,30.05,SSW,202,2.7,11.0,20,0.00,,SCT,0.00,VWS V14.01,2013-08-14 21:00:00,
2013-08-14 14:02:00,85.5,39.9,30.05,SE,129,9.2,9.2,20,0.00,,SCT,0.00,VWS V14.01,2013-08-14 21:02:00,
2013-08-14 14:07:00,85.8,40.2,30.05,South,182,5.8,10.1,20,0.00,,SCT,0.00,VWS V14.01,2013-08-14 21:07:00,
2013-08-14 14:12:00,86.4,40.6,30.05,South,182,4.0,10.1,20,0.00,,SCT,0.00,VWS V14.01,2013-08-14 21:12:00,
2013-08-14 14:15:00,86.5,39.4,30.05,SW,225,3.1,10.1,19,0.00,,SCT,0.00,VWS V14.01,2013-08-14 21:15:00,
2013-08-14 14:17:00,86.4,39.3,30.05,ESE,122,5.8,6.7,19,0.00,,SCT,0.00,VWS V14.01,2013-08-14 21:17:00,
2013-08-14 14:22:00,86.9,39.7,30.05,SSE,150,0.0,6.7,19,0.00,,SCT,0.00,VWS V14.01,2013-08-14 21:22:00,
2013-08-14 14:27:00,87.4,41.5,30.05,South,183,3.6,6.7,20,0.00,,SCT,0.00,VWS V14.01,2013-08-14 21:27:00,
2013-08-14 14:33:00,87.1,39.9,30.05,ESE,121,4.0,8.7,19,0.00,,SCT,0.00,VWS V14.01,2013-08-14 21:33:00,
2013-08-14 14:38:00,87.1,39.9,30.05,WSW,258,0.0,8.7,19,0.00,,SCT,0.00,VWS V14.01,2013-08-14 21:38:00,
2013-08-14 14:43:00,87.3,40.0,30.05,South,175,8.1,10.1,19,0.00,,SCT,0.00,VWS V14.01,2013-08-14 21:43:00,
2013-08-14 14:45:00,87.1,39.9,30.05,SE,145,6.3,10.1,19,0.00,,SCT,0.00,VWS V14.01,2013-08-14 21:45:00,
2013-08-14 15:15:00,89.1,40.1,30.05,West,265,5.8,8.7,18,0.00,,SCT,0.00,VWS V14.01,2013-08-14 22:15:00,
2013-08-14 15:30:00,90.1,41.0,30.05,NW,309,2.7,7.6,18,0.00,,SCT,0.00,VWS V14.01,2013-08-14 22:30:00,
2013-08-14 15:45:00,90.9,43.0,30.05,NNW,337,0.0,7.2,19,0.00,,SCT,0.00,VWS V14.01,2013-08-14 22:45:00,
2013-08-14 16:00:00,90.5,41.3,30.02,WSW,252,0.0,7.2,18,0.00,,SCT,0.00,VWS V14.01,2013-08-14 23:00:00,
2013-08-14 16:15:00,89.4,41.8,30.05,WSW,251,0.0,5.4,19,0.00,,SCT,0.00,VWS V14.01,2013-08-14 23:15:00,
2013-08-14 16:30:00,89.6,41.9,30.02,NNW,335,2.7,8.1,19,0.00,,SCT,0.00,VWS V14.01,2013-08-14 23:30:00,
2013-08-14 16:45:00,90.7,42.8,30.02,NNW,346,2.7,8.7,19,0.00,,SCT,0.00,VWS V14.01,2013-08-14 23:45:00,
2013-08-14 17:00:00,90.7,42.8,30.02,West,276,0.0,10.5,19,0.00,,SCT,0.00,VWS V14.01,2013-08-15 00:00:00,
2013-08-14 17:15:00,89.8,42.1,30.02,NW,310,0.0,8.3,19,0.00,,SCT,0.00,VWS V14.01,2013-08-15 00:15:00,
2013-08-14 17:30:00,89.6,41.9,30.02,North,353,0.0,6.3,19,0.00,,SCT,0.00,VWS V14.01,2013-08-15 00:30:00,
2013-08-14 17:45:00,88.2,42.1,30.02,NW,311,0.0,7.6,20,0.00,,SCT,0.00,VWS V14.01,2013-08-15 00:45:00,
2013-08-14 18:00:00,87.8,43.0,30.02,SW,222,2.7,11.0,21,0.00,,SCT,0.00,VWS V14.01,2013-08-15 01:00:00,
2013-08-14 18:15:00,87.6,44.1,30.05,NNW,331,0.0,8.3,22,0.00,,SCT,0.00,VWS V14.01,2013-08-15 01:15:00,
2013-08-14 18:30:00,85.8,42.6,30.05,NW,319,2.7,9.6,22,0.00,,SCT,0.00,VWS V14.01,2013-08-15 01:30:00,
2013-08-14 18:45:00,84.0,44.5,30.02,North,7,0.0,5.8,25,0.00,,SCT,0.00,VWS V14.01,2013-08-15 01:45:00,
2013-08-14 19:00:00,82.9,44.6,30.05,NNW,334,0.0,5.8,26,0.00,,SCT,0.00,VWS V14.01,2013-08-15 02:00:00,
2013-08-14 19:15:00,81.1,45.0,30.05,NW,326,0.0,6.7,28,0.00,,SCT,0.00,VWS V14.01,2013-08-15 02:15:00,
2013-08-14 19:30:00,79.7,45.6,30.05,NW,324,0.0,7.6,30,0.00,,SCT,0.00,VWS V14.01,2013-08-15 02:30:00,
2013-08-14 19:45:00,78.1,45.0,30.05,NNE,30,0.0,2.7,31,0.00,,SCT,0.00,VWS V14.01,2013-08-15 02:45:00,
2013-08-14 20:00:00,77.4,44.4,30.05,NW,314,0.0,0.0,31,0.00,,SCT,0.00,VWS V14.01,2013-08-15 03:00:00,
2013-08-14 20:15:00,76.5,43.6,30.05,NW,319,0.0,3.1,31,0.00,,SCT,0.00,VWS V14.01,2013-08-15 03:15:00,
2013-08-14 20:30:00,75.0,43.2,30.05,NNW,340,0.0,0.0,32,0.00,,SCT,0.00,VWS V14.01,2013-08-15 03:30:00,
2013-08-14 20:45:00,74.5,43.5,30.05,NW,323,0.0,0.0,33,0.00,,SCT,0.00,VWS V14.01,2013-08-15 03:45:00,
2013-08-14 21:00:00,73.6,44.3,30.05,NW,320,0.0,0.0,35,0.00,,SCT,0.00,VWS V14.01,2013-08-15 04:00:00,
2013-08-14 21:15:00,72.0,45.7,30.08,South,191,0.0,0.0,39,0.00,,SCT,0.00,VWS V14.01,2013-08-15 04:15:00,
2013-08-14 21:30:00,70.9,46.0,30.08,SE,127,0.0,2.2,41,0.00,,SCT,0.00,VWS V14.01,2013-08-15 04:30:00,
2013-08-14 21:45:00,70.2,45.4,30.08,NW,307,0.0,2.2,41,0.00,,SCT,0.00,VWS V14.01,2013-08-15 04:45:00,
2013-08-14 22:00:00,69.6,45.5,30.08,NNW,333,0.0,0.0,42,0.00,,SCT,0.00,VWS V14.01,2013-08-15 05:00:00,
2013-08-14 22:15:00,69.1,45.7,30.08,WNW,288,0.0,0.0,43,0.00,,SCT,0.00,VWS V14.01,2013-08-15 05:15:00,
2013-08-14 22:30:00,68.4,45.0,30.08,NW,325,0.0,0.0,43,0.00,,SCT,0.00,VWS V14.01,2013-08-15 05:30:00,
2013-08-14 22:45:00,67.6,45.0,30.08,NNW,332,3.6,4.0,44,0.00,,SCT,0.00,VWS V14.01,2013-08-15 05:45:00,
2013-08-14 23:00:00,66.7,44.8,30.08,NNW,335,4.0,5.4,45,0.00,,SCT,0.00,VWS V14.01,2013-08-15 06:00:00,
2013-08-14 23:15:00,66.4,44.4,30.08,NNW,344,4.5,4.9,45,0.00,,SCT,0.00,VWS V14.01,2013-08-15 06:15:00,
2013-08-14 23:30:00,66.0,44.7,30.08,NNW,329,0.0,8.1,46,0.00,,SCT,0.00,VWS V14.01,2013-08-15 06:30:00,
2013-08-14 23:45:00,65.8,44.5,30.08,NW,326,0.0,0.0,46,0.00,,SCT,0.00,VWS V14.01,2013-08-15 06:45:00,